Regional Weather Roundup
Issued by NWS

Home | Current Version | Previous Version | Text Only | Print | Product List | Glossary On
Versions: 1 2 3 4 5 6 7 8 9 10 11 12 13 14 15 16 17 18 19 20 21 22 23 24 25 26 27 28 29 30 31 32 33 34 35 36 37 38 39 40 41 42 43 44 45 46 47 48 49 50
000
ASUS45 KABQ 230810
RWRNM
NEW MEXICO REGIONAL WEATHER ROUNDUP
NATIONAL WEATHER SERVICE ALBUQUERQUE NM
200 AM MDT SAT JUN 23 2018

NOTE: "FAIR" MEANS FEW OR NO CLOUDS BELOW 12,000 FEET AGL WITH NO
       SIGNIFICANT WEATHER OR OBSTRUCTIONS TO VISION.

      THIS PRODUCT IS RELEASED AS TWO VERSIONS.  ONE VERSION NEAR
      THE TOP OF THE HOUR CONTAINING PRELIMINARY DATA FROM ALBUQUERQUE
      AND OTHER STATIONS.  A FINAL VERSION WITH ADDITIONAL DATA IS
      ISSUED ABOUT 10 MINUTES AFTER THE HOUR.

NMZ501-503-504-510>518-230900-
NORTHWEST PLATEAU/NORTHCENTRAL MOUNTAINS

CITY           SKY/WX    TMP DP  RH WIND       PRES   REMARKS
FARMINGTON     FAIR      66  13  12 W3        29.96R
LOS ALAMOS     FAIR      73  13  10 NW8       30.08F
SANTA FE       FAIR      66  12  12 N10       29.98F
TAOS           FAIR      60  12  15 E7        30.09F
ANGEL FIRE     FAIR      42  20  41 CALM      30.19F

$$
NMZ402-403-502-505>509-230900-
WESTCENTRAL MOUNTAINS/SOUTHWEST MOUNTAINS

CITY           SKY/WX    TMP DP  RH WIND       PRES   REMARKS
GALLUP         FAIR      49  15  25 SW5       30.07S
GRANTS         FAIR      60  12  15 CALM      30.07S
SILVER CITY    FAIR      73  17  12 NW15      29.98F

$$
NMZ407-409-411-412-230900-
SOUTHERN DESERTS

CITY           SKY/WX    TMP DP  RH WIND       PRES   REMARKS
DEMING         FAIR      75  21  13 W7        29.90R
LAS CRUCES     FAIR      77  19  11 W13       29.88F
HOLLOMAN AFB   FAIR      77  21  12 SE7       29.84S
ALAMOGORDO     FAIR      75  19  12 CALM      29.85S
T OR C         FAIR      83  15   8 NW9       29.89S

$$
NMZ519>523-230900-
CENTRAL VALLEYS/CENTRAL HIGHLANDS

CITY           SKY/WX    TMP DP  RH WIND       PRES   REMARKS
ALBUQUERQUE    FAIR      78  15   9 CALM      29.93S
DOUBLE EAGLE   FAIR      71  15  12 NW9       29.97F
MORIARTY ARPT  FAIR      64  20  18 NE3       30.01R
CLINES CORNERS FAIR      65  13  13 CALM      30.07R
BELEN          FAIR      73  14  10 NW12      29.93R
SOCORRO        FAIR      85  13   7 NW16G24   29.90R

$$
NMZ524>526-539-540-230900-
SOUTHCENTRAL MOUNTAINS

CITY           SKY/WX    TMP DP  RH WIND       PRES   REMARKS
RUIDOSO        FAIR      72  14  11 NW9       30.07S

$$
NMZ527>531-230900-
NORTHEAST HIGHLANDS/NORTHEAST PLAINS

CITY           SKY/WX    TMP DP  RH WIND       PRES   REMARKS
LAS VEGAS      FAIR      56  44  64 NE12      30.05R
RATON          FAIR      62  53  72 N8        30.03F
CLAYTON        FAIR      57  56  96 N13       29.94F

$$
NMZ532>537-230900-
EASTCENTRAL PLAINS

CITY           SKY/WX    TMP DP  RH WIND       PRES   REMARKS
SANTA ROSA     FAIR      68  52  55 N18       29.87R
TUCUMCARI      FAIR      66  57  72 N10       29.82R
CANNON AFB     FAIR      75  53  45 N8        29.81R
CLOVIS AIRPORT FAIR      70  56  61 NW7       29.81R

$$
NMZ028-029-538-230900-
SOUTHEAST PLAINS

CITY           SKY/WX    TMP DP  RH WIND       PRES   REMARKS
ROSWELL        FAIR      79  53  40 S13       29.73F
ARTESIA        FAIR      79  55  44 S14       29.74F
CARLSBAD       FAIR      75  51  43 S12       29.74F
HOBBS          FAIR      77  61  57 S18G25    29.78F


$$




USA.gov is the U.S. government's official web portal to all federal, state and local government web resources and services.